Location: Leipzig
(51.3392°N, 12.3528°E)
Time: 07:11:11
(UTC+02:00)

ISS - Visible Passes

Search period start: 22 July 2018 00:00
Search period end: 01 August 2018 00:00
Orbit: 402 x 408 km, 51.6° (Epoch: 22 July)

Date Brightness Start Highest point End Pass type
(mag) Time Alt. Az. Time Alt. Az. Time Alt. Az.
22 Jul -3.9 00:31:37 10° W 00:34:55 84° N 00:38:14 10° E visible
22 Jul -4.0 02:08:08 10° W 02:11:26 71° SSW 02:14:43 10° ESE visible
22 Jul -2.6 03:44:58 10° W 03:47:34 22° SW 03:50:10 10° SSE visible
22 Jul -3.1 22:03:31 10° SW 22:06:29 33° SSE 22:09:29 10° E visible
22 Jul -3.9 23:39:30 10° W 23:42:47 87° S 23:46:05 10° E visible
23 Jul -4.0 01:16:01 10° W 01:19:19 87° SSW 01:20:52 29° ESE visible
23 Jul -1.7 02:52:37 10° W 02:53:22 15° W 02:53:22 15° W visible
23 Jul -3.9 22:47:24 10° WSW 22:50:40 72° SSE 22:53:57 10° E visible
24 Jul -3.9 00:23:53 10° W 00:27:11 84° N 00:29:10 22° E visible
24 Jul -2.1 02:00:24 10° W 02:01:46 22° W 02:01:46 22° W visible
24 Jul -3.7 21:55:22 10° WSW 21:58:34 54° SSE 22:01:48 10° E visible
24 Jul -3.8 23:31:43 10° W 23:35:01 83° N 23:38:11 11° E visible
25 Jul -3.3 01:08:14 10° W 01:10:47 47° WSW 01:10:47 47° WSW visible
25 Jul -3.8 22:39:33 10° W 22:42:50 89° NNW 22:46:09 10° E visible
26 Jul -4.0 00:16:04 10° W 00:19:22 81° SSW 00:20:01 54° ESE visible
26 Jul -3.9 21:47:24 10° WSW 21:50:41 78° SSE 21:53:58 10° E visible
26 Jul -3.9 23:23:54 10° W 23:27:12 87° N 23:29:20 20° E visible
27 Jul -2.1 01:00:27 10° W 01:01:57 23° W 01:01:57 23° W visible
27 Jul -3.8 22:31:43 10° W 22:35:00 83° N 22:38:19 10° E visible
28 Jul -3.7 00:08:13 10° W 00:11:19 57° SW 00:11:19 57° SW visible
28 Jul -3.9 23:16:01 10° W 23:19:19 76° SSW 23:20:44 31° ESE visible
29 Jul -1.3 00:52:45 10° W 00:53:21 13° W 00:53:21 13° W visible
29 Jul -3.9 22:23:49 10° W 22:27:07 90° S 22:30:09 12° E visible
30 Jul -2.7 00:00:23 10° W 00:02:47 32° SW 00:02:47 32° SW visible
30 Jul -3.6 23:08:06 10° W 23:11:19 51° SSW 23:12:14 36° SSE visible
31 Jul -3.8 22:15:51 10° W 22:19:08 69° SSW 22:21:42 15° ESE visible
31 Jul -1.9 23:52:41 10° W 23:54:21 19° WSW 23:54:21 19° WSW visible
